This is the latest recevied weather packets stored in our database for station/object N5PRN. If no packets are shown the sender has not sent any weather packets the latest 10 day(s).
| Time | Temp. | Humidity | Pressure | Rain* | Wind** | Luminosity | Snow |
|---|---|---|---|---|---|---|---|
| 1777212706 | 21.67° C | 88% | 1011.5 hPa | 0 mm | - | 169 W/m² | - |
| 1777212405 | 21.67° C | 88% | 1011.7 hPa | 0 mm | - | 180 W/m² | - |
| 1777212102 | 21.67° C | 89% | 1011.6 hPa | 0 mm | - | 279 W/m² | - |
| 1777210587 | 20° C | 93% | 1011.4 hPa | 0 mm | - | 224 W/m² | - |
| 1777210284 | 19.44° C | 94% | 1011.2 hPa | 0 mm | - | 148 W/m² | - |
| 1777209981 | 19.44° C | 95% | 1011.1 hPa | 0 mm | - | 119 W/m² | - |
| 1777209681 | 19.44° C | 95% | 1011.3 hPa | 0 mm | - | 156 W/m² | - |
| 1777209378 | 19.44° C | 95% | 1011.3 hPa | 0 mm | - | 144 W/m² | - |
| 1777209074 | 18.89° C | 95% | 1011.5 hPa | 0 mm | - | 115 W/m² | - |
| 1777208770 | 18.89° C | 96% | 1011.6 hPa | 0 mm | - | 77 W/m² | - |
| 1777208164 | 18.89° C | 96% | 1011.6 hPa | 0 mm | - | 124 W/m² | - |
| 1777206036 | 18.33° C | 97% | 1011.2 hPa | 0 mm | - | 38 W/m² | - |
| 1777205732 | 18.33° C | 97% | 1011.2 hPa | 0 mm | - | 32 W/m² | - |
| 1777205429 | 18.33° C | 97% | 1011.1 hPa | 0 mm | - | 26 W/m² | - |
| 1777205124 | 18.33° C | 97% | 1011.2 hPa | 0 mm | - | 15 W/m² | - |
| 1777204212 | 18.33° C | 97% | 1011.4 hPa | 0 mm | - | 6 W/m² | - |
| 1777203298 | 18.33° C | 97% | 1011.5 hPa | 0 mm | - | 0 W/m² | - |
| 1777202995 | 18.33° C | 97% | 1011.5 hPa | 0 mm | - | 0 W/m² | - |
| 1777200260 | 18.89° C | 97% | 1011.9 hPa | 0 mm | - | 0 W/m² | - |
| 1777199957 | 19.44° C | 97% | 1011.7 hPa | 0 mm | - | 0 W/m² | - |
| 1777199652 | 21.11° C | 97% | 1011.9 hPa | 0 mm | - | 0 W/m² | - |
| 1777199348 | 21.67° C | 97% | 1011.4 hPa | 0 mm | - | 0 W/m² | - |
| 1777199047 | 21.67° C | 97% | 1011.1 hPa | 0 mm | - | 0 W/m² | - |
| 1777198440 | 21.67° C | 97% | 1010.6 hPa | 0 mm | - | 0 W/m² | - |
| 1777198136 | 21.67° C | 97% | 1010.5 hPa | 0 mm | - | 0 W/m² | - |
* Rain latest hour (hover to see other rain measurements)
** Current wind speed in m/s (hover to see current wind gust speed)